Location: Arrodets-la-Barthe
(43.0306°N, 0.2829°E)
Time: 13:53:23
(UTC+00:00)

Meteor 1-4 Rocket - Pass Details

Date: 24 October 2021
Orbit: 447 x 496 km, 81.2° (Epoch: 07 December)

Event Time Altitude Azimuth Distance (km) Brightness Sun altitude
Rises 18:29:42 0° 192° (SSW) 2,467 6.3 -16.7°
Reaches altitude 10° 18:31:47 10° 193° (SSW) 1,591 5.3 -17.0°
Maximum altitude 18:35:15 77° 280° (W) 469 2.5 -17.7°
Drops below altitude 10° 18:38:42 10° 7° (N) 1,588 5.1 -18.3°
Sets 18:40:47 0° 9° (N) 2,462 6.1 -18.7°
